This demonstration page uses our WeatherBlox Daily Observations layout. Learn more.

Left ArrowRight Arrow

47.50024, -111.30081

Hourly Observations for April 2, 2020

Temp ( °F °C ) Dew Point ( °F °C ) Humidity (%) Winds ( mph kmh ) Pressure ( in mb ) Visibility ( mi km ) Precip ( " mm )
12:53 am 00:53 Cloudy 8 -13.3 1 -17.2 73 73 E 12 19 30.41 1030 10 16 0.00 0.00
1:53 am 01:53 Cloudy 8 -13.3 1 -17.2 73 73 ENE 13 20 30.43 1031 10 16 0.00 0.00
2:53 am 02:53 Cloudy 8 -13.3 1 -17.2 73 73 ENE 12 19 30.42 1030 10 16 0.00 0.00
3:53 am 03:53 Cloudy 8 -13.3 0 -17.8 69 69 E 12 19 30.43 1031 10 16 0.00 0.00
4:53 am 04:53 Cloudy 9 -12.8 -1 -18.3 64 64 E 13 20 30.42 1030 10 16 0.00 0.00
5:53 am 05:53 Cloudy 9 -12.8 -3 -19.4 58 58 ENE 13 20 30.43 1030 10 16 0.00 0.00
6:53 am 06:53 Cloudy 8 -13.3 -3 -19.4 60 60 ENE 14 22 30.43 1031 10 16 0.00 0.00
7:53 am 07:53 Cloudy 8 -13.3 -4 -20 57 57 E 13 20 30.44 1031 10 16 0.00 0.00
8:53 am 08:53 Mostly Cloudy 8 -13.3 -3 -19.4 60 60 ENE 10 17 30.44 1031 10 16 0.00 0.00
9:53 am 09:53 Sunny 11 -11.7 -1 -18.3 58 58 ENE 8 13 30.42 1030 10 16 0.00 0.00
10:53 am 10:53 Sunny 11 -11.7 0 -17.8 61 61 E 10 17 30.42 1030 10 16 0.00 0.00
11:53 am 11:53 Sunny 13 -10.6 1 -17.2 59 59 E 13 20 30.40 1030 10 16 0.00 0.00
12:53 pm 12:53 Mostly Cloudy 14 -10 3 -16.1 61 61 ESE 13 20 30.38 1029 10 16 0.00 0.00
1:53 pm 13:53 Sunny 15 -9.4 4 -15.6 61 61 E 12 19 30.36 1028 10 16 0.00 0.00
2:53 pm 14:53 Sunny 16 -8.9 5 -15 62 62 E 8 13 30.35 1028 10 16 0.00 0.00
4:53 pm 16:53 Sunny 18 -7.8 7 -13.9 62 62 ESE 9 15 30.31 1027 10 16 0.00 0.00
7:53 pm 19:53 Mostly Sunny 13 -10.6 6 -14.4 74 74 NNE 10 17 30.33 1027 10 16 0.00 0.00
8:53 pm 20:53 Cloudy 12 -11.1 5 -15 73 73 NE 6 9 30.35 1028 10 16 0.00 0.00
9:53 pm 21:53 Cloudy 12 -11.1 5 -15 73 73 NE 6 9 30.35 1028 10 16 0.00 0.00
10:53 pm 22:53 Cloudy 13 -10.6 6 -14.4 74 74 E 7 11 30.33 1027 10 16 0.00 0.00
11:53 pm 23:53 Mostly Cloudy 10 -12.2 4 -15.6 76 76 NE 6 9 30.33 1027 10 16 0.00 0.00

Powered by AerisWeather